Hourly Weather Roundup
Issued by NWS Central Illinois

Home | Current Version | Previous Version | Text Only | Print | Product List | Glossary On
Versions: 1 2 3 4 5 6 7 8 9 10 11 12 13 14 15 16 17 18 19 20 21 22 23 24 25 26 27 28 29 30 31 32 33 34 35 36 37 38 39 40 41 42 43 44 45 46 47 48 49 50
000
NZUS43 KILX 011910
HWRILX

AREA WEATHER ROUNDUP
NATIONAL WEATHER SERVICE, LINCOLN IL
200 PM CDT WED JUL 01 2015


CITY           SKY/WX    TMP DP  RH WIND       PRES   REMARKS
BLOOMINGTON    MOSUNNY   76  66  71 NE6       29.94S
CHAMPAIGN      CLOUDY    74  66  76 E8        29.91F
DANVILLE       CLOUDY    71  64  79 CALM      29.90F
DECATUR        PTSUNNY   79  69  71 NE9       29.90S HAZE    HX  81
EFFINGHAM      MOSUNNY   82  63  52 W6        29.91F HX  83
FLORA          PTSUNNY   79  69  70 SW7       29.90F HX  81
GALESBURG      PTSUNNY   74  64  70 NE9       29.91F
JACKSONVILLE   PTSUNNY   82  68  63 SW3       29.88F HX  85
LACON          PTSUNNY   73  62  68 NE5       29.92F
LAWRENCEVILLE  PTSUNNY   75  70  84 SW7       29.90F
LITCHFIELD     PTSUNNY   78  68  69 SW5       29.90F HX  81
$$


CITY           SKY/WX    TMP DP  RH WIND       PRES   REMARKS
LINCOLN        PTSUNNY   78  68  71 NE6       29.90F HX  80
MACOMB         CLOUDY    76  69  78 NE12      29.92F
MATTOON        MOSUNNY   77  70  79 CALM      29.88F
MT CARMEL AP   PTSUNNY   79  68  69 W7        29.90F HX  81
OLNEY-NOBLE AP PTSUNNY   77  72  83 SW5       29.90F
PARIS          CLOUDY    74  68  81 CALM      29.91F
PEORIA         PTSUNNY   78  64  61 NE8       29.91F HX  80
PONTIAC        PTSUNNY   74  65  74 E7        29.94S
RANTOUL        CLOUDY    74  65  73 E6        29.92F
ROBINSON       CLOUDY    78  70  76 SW7       29.89F
SPRINGFIELD    MOSUNNY   83  68  60 SW7       29.89F HX  86
TAYLORVILLE    CLOUDY    77  68  73 NW3       29.89S
$$

...REGIONAL REPORTS...


CITY           SKY/WX    TMP DP  RH WIND       PRES   REMARKS
CHICAGO O`HARE PTSUNNY   66  55  67 E8        29.96S
KANKAKEE       CLOUDY    71  61  70 N3        29.94F
MOLINE         PTSUNNY   72  61  68 NE9       29.92F
MOUNT STERLING NOT AVBL
MOUNT VERNON   PTSUNNY   81  66  61 SW6       29.91F HX  83
PITTSFIELD     PTSUNNY   81  69  67 SW3       29.90F HX  84
QUINCY         CLOUDY    80  67  64 SW6       29.88S HX  82
ROCKFORD       CLOUDY    73  53  49 N9        29.97F
$$


CITY           SKY/WX    TMP DP  RH WIND       PRES   REMARKS
BURLINGTON     CLOUDY    77  69  76 NE12      29.90F
CEDAR RAPIDS   CLOUDY    70  61  73 E7        29.93F
DES MOINES     CLOUDY    74  63  68 NE10      29.92S
KIRKSVILLE     LGT RAIN  78  70  76 S5        29.90F HX  80
OTTUMWA        CLOUDY    75  67  76 E12       29.89R
ST LOUIS       PTSUNNY   86  69  56 W9        29.89F HX  90
$$


CITY           SKY/WX    TMP DP  RH WIND       PRES   REMARKS
TERRE HAUTE    MOSUNNY   78  67  68 SE7       29.90F HX  80
EVANSVILLE     CLOUDY    77  68  73 SW8       29.93F HAZE
INDIANAPOLIS   CLOUDY    77  60  55 W5        29.91F
LAFAYETTE      PTSUNNY   74  62  66 NE5       29.92F
MADISON        PTSUNNY   69  48  47 VRB6      29.98S
MILWAUKEE      PTSUNNY   60  50  69 E13       29.99S
$$




USA.gov is the U.S. government's official web portal to all federal, state and local government web resources and services.